Flag for Germany Weather past 2 weeks in Verden (Aller), Lower Saxony, Germany

Now
52 °F

Passing clouds.


Feels Like: 46 °F
Forecast: 41 / 46 °F
Wind: 18 mph from Southwest

Location: Bremen Airport

Current Time: Mar 29, 2015 at 6:29:49 AM

Latest Report: Mar 29, 2015 at 5:20 AM


Visibility: N/A

Pressure: 29.53 "Hg

Humidity: 88%

Dew point: 48 °F

Location of Verden (Aller)Location

Historic Weather in Verden (Aller) — Graph

°F

Verden (Aller) temperature yesterday

Maximum temperature yesterday: 50 °F (at 12:20 PM)
Minimum temperature yesterday: 37 °F (at 2:50 AM)
Average temperature yesterday: 45 °F

Past Weeks' High & Low Weather Summary

 TemperatureHumidityPressure
High61 °F (Mar 17, 3:50 PM)100% (Mar 19, 12:20 AM)30.45 "Hg (Mar 19, 12:20 AM)
Low28 °F (Mar 23, 5:20 AM)29% (Mar 19, 2:50 PM)29.53 "Hg (Mar 29, 4:20 AM)
Average43 °F79%30.10 "Hg
* Reported Mar 14 3:20 AM — Mar 29 4:50 AM, Verden (Aller), Weather by CustomWeather, © 2015

Note: Actual official high and low records may vary slightly from our data, if they occured in-between our weather recording intervals... More about our weather records

Advertising

Verden (Aller) weather history for previous 24 hours

 ConditionsComfort  
Time TempWeatherWind HumidityBarometerVisibility
4:50 AM
Sun, Mar 29
52 °FPartly cloudy.18 mph88%29.53 "HgN/A
4:20 AM52 °FLight rain. Partly cloudy.15 mph88%29.53 "HgN/A
3:50 AM52 °FPassing clouds.15 mph88%29.56 "HgN/A
3:20 AM52 °FPartly cloudy.17 mph94%29.56 "HgN/A
1:50 AM52 °FPartly cloudy.13 mph94%29.59 "HgN/A
1:20 AM50 °FPassing clouds.13 mph100%29.59 "Hg2 mi
12:50 AM50 °FPassing clouds.13 mph100%29.62 "Hg5 mi
12:20 AM50 °FDrizzle. Fog.13 mph100%29.62 "Hg2 mi
11:50 PM
Sat, Mar 28
50 °FDrizzle. Fog.14 mph94%29.65 "Hg2 mi
11:20 PM50 °FDrizzle. Fog.13 mph94%29.65 "Hg2 mi
10:50 PM50 °FDrizzle. Fog.15 mph94%29.68 "Hg2 mi
10:20 PM50 °FPassing clouds.16 mph94%29.68 "Hg4 mi
9:50 PM48 °FPassing clouds.13 mph94%29.71 "Hg4 mi
9:20 PM48 °FPassing clouds.15 mph94%29.71 "Hg6 mi
8:50 PM48 °FPassing clouds.15 mph94%29.74 "Hg6 mi
8:20 PM48 °FPassing clouds.14 mph94%29.77 "Hg6 mi
7:50 PM46 °FPassing clouds.13 mph93%29.77 "Hg5 mi
7:20 PM46 °FPassing clouds.15 mph93%29.80 "Hg5 mi
6:50 PM46 °FDrizzle. Mostly cloudy.16 mph93%29.80 "Hg4 mi
6:20 PM46 °FDrizzle. Mostly cloudy.17 mph87%29.80 "Hg3 mi
5:50 PM48 °FDrizzle. Mostly cloudy.18 mph82%29.83 "Hg4 mi
5:20 PM48 °FMostly cloudy.13 mph82%29.83 "Hg5 mi
4:50 PM48 °FLight rain. Mostly cloudy.13 mph82%29.86 "Hg5 mi
4:20 PM50 °FLight rain. Mostly cloudy.10 mph71%29.86 "HgN/A
3:50 PM50 °FLight rain. Overcast.15 mph71%29.89 "HgN/A
3:20 PM50 °FLight rain. Partly sunny.14 mph62%29.89 "HgN/A
2:50 PM50 °FPartly sunny.13 mph62%29.92 "HgN/A
2:20 PM50 °FPartly sunny.14 mph62%29.95 "HgN/A
1:50 PM50 °FBroken clouds.14 mph58%29.95 "HgN/A
1:20 PM50 °FPartly sunny.15 mph58%29.98 "HgN/A
12:50 PM50 °FPartly sunny.13 mph58%30.01 "HgN/A
12:20 PM50 °FPassing clouds.13 mph58%30.01 "HgN/A
11:50 AM48 °FPassing clouds.16 mph58%30.04 "HgN/A
11:20 AM48 °FScattered clouds.13 mph62%30.04 "HgN/A
10:50 AM46 °FPassing clouds.13 mph71%30.07 "HgN/A
10:20 AM46 °FPassing clouds.12 mph71%30.09 "HgN/A
9:50 AM43 °FPassing clouds.9 mph81%30.09 "HgN/A
9:20 AM41 °FScattered clouds.9 mph93%30.12 "Hg4 mi
8:50 AM41 °FPassing clouds.9 mph93%30.12 "Hg4 mi
8:20 AM41 °FScattered clouds.6 mph93%30.12 "Hg4 mi
7:50 AM39 °FPartly sunny.5 mph93%30.12 "Hg4 mi
7:20 AM39 °FPartly sunny.5 mph93%30.15 "Hg4 mi
6:50 AM39 °FPartly sunny.5 mph93%30.15 "HgN/A
6:20 AM37 °FPartly sunny.1 mph100%30.15 "HgN/A
Weather by CustomWeather, © 2015

See weather overviewHow to use our weather pages